EW8068 Weather Reports


time (UTC)temp
C
wind
direction
speed
KPH
gust
KPH
rain 1hr
cm
rain 24hr
cm
rain mn
cm
humidity
%
barometer
mb
20260509113026 3 265 0.0 1.6 0.00 0.00 0.00 62 1011.4
20260509111520 3 175 0.0 3.2 0.00 0.00 0.00 63 1011.5
20260509110018 3 137 0.0 0.0 0.00 0.00 0.00 64 1011.4
20260509104517 3 129 0.0 0.0 0.00 0.00 0.00 64 1011.3
20260509103016 3 103 0.0 0.0 0.00 0.00 0.00 65 1011.1
20260509101522 3 145 0.0 0.0 0.00 0.00 0.00 66 1011.0
20260509100013 2 156 0.0 0.0 0.00 0.00 0.00 67 1010.9
20260509094512 2 111 0.0 0.0 0.00 0.00 0.00 68 1010.7
20260509093012 2 160 0.0 0.0 0.00 0.00 0.00 68 1010.4
20260509091512 3 133 0.0 3.2 0.00 0.00 0.00 68 1010.5
20260509090013 3 136 0.0 0.0 0.00 0.00 0.00 67 1010.5
20260509084512 3 126 0.0 0.0 0.00 0.00 0.00 67 1010.5
20260509083028 2 105 0.0 0.0 0.00 0.00 0.00 68 1010.5
20260509081511 2 171 0.0 0.0 0.00 0.00 0.00 67 1010.7
20260509080010 2 112 0.0 0.0 0.00 0.00 0.00 65 1010.8
20260509074509 2 210 0.0 0.0 0.00 0.00 0.00 66 1010.7
20260509073015 2 213 0.0 0.0 0.00 0.00 0.00 64 1010.8
20260509071508 2 213 0.0 0.0 0.00 0.00 0.00 63 1010.8
20260509070007 2 213 0.0 0.0 0.00 0.00 0.00 62 1010.7
20260509064506 2 213 0.0 0.0 0.00 0.00 0.00 61 1010.7
20260509063018 2 213 0.0 1.6 0.00 0.00 0.00 62 1010.9
20260509061505 2 260 0.0 0.0 0.00 0.00 0.00 61 1010.9
20260509060004 3 248 0.0 0.0 0.00 0.00 0.00 60 1010.8
20260509054501 3 240 0.0 0.0 0.00 0.00 0.00 60 1010.7
20260509053134 3 293 0.0 0.0 0.00 0.00 0.00 59 1010.7
20260509051600 3 293 0.0 0.0 0.00 0.00 0.00 59 1010.7
20260509050058 3 293 0.0 0.0 0.00 0.00 0.00 58 1010.6
20260509044649 3 317 0.0 0.0 0.00 0.00 0.00 59 1010.7
20260509043139 3 317 0.0 0.0 0.00 0.00 0.00 58 1010.7
20260509041557 3 317 0.0 0.0 0.00 0.00 0.00 57 1010.6
20260509040059 3 303 0.0 0.0 0.00 0.00 0.00 56 1010.5
20260509034553 3 303 0.0 0.0 0.00 0.00 0.00 57 1010.3
20260509033052 3 303 0.0 0.0 0.00 0.00 0.00 58 1010.2
20260509031559 3 303 0.0 0.0 0.00 0.00 0.00 57 1010.1
20260509030109 3 303 0.0 0.0 0.00 0.00 0.00 57 1010.1
20260509024550 3 303 0.0 0.0 0.00 0.00 0.00 57 1010.0
20260509023057 3 303 0.0 0.0 0.00 0.00 0.00 57 1010.0
20260509021553 3 303 0.0 0.0 0.00 0.00 0.00 57 1009.9
20260509014554 4 303 0.0 0.0 0.00 0.00 0.00 57 1009.7
20260509013048 4 303 0.0 0.0 0.00 0.00 0.00 58 1009.5
20260509011548 3 303 0.0 0.0 0.00 0.00 0.00 59 1009.3
20260509010045 3 303 0.0 0.0 0.00 0.00 0.00 60 1009.1
20260509004553 3 303 0.0 0.0 0.00 0.00 0.00 61 1009.1
20260509003050 3 303 0.0 0.0 0.00 0.00 0.00 60 1008.8
20260509001541 4 303 0.0 0.0 0.00 0.00 0.00 60 1008.7
20260509000041 5 303 0.0 0.0 0.00 0.00 0.00 59 1008.7
20260508234542 5 303 0.0 0.0 0.00 0.00 0.00 55 1008.7
20260508233041 5 313 0.0 0.0 0.00 0.00 0.00 54 1008.5
20260508231538 5 315 0.0 0.0 0.00 0.00 0.00 54 1008.4
20260508230038 6 296 0.0 0.0 0.00 0.00 0.00 54 1008.5
20260508224549 6 267 0.0 6.4 0.00 0.00 0.00 51 1008.3
20260508223046 6 269 0.0 3.2 0.00 0.00 0.00 54 1008.3
20260508221535 6 267 0.0 4.8 0.00 0.00 0.00 55 1008.2
20260508220042 6 314 0.0 1.6 0.00 0.00 0.00 57 1008.2
20260508214534 6 292 0.0 0.0 0.00 0.00 0.00 56 1008.1
20260508213034 6 269 0.0 3.2 0.00 0.00 0.00 56 1008.1
20260508211534 6 301 0.0 1.6 0.00 0.00 0.00 60 1008.0
20260508210033 5 329 0.0 9.7 0.00 0.00 0.00 59 1007.8
20260508204533 6 297 0.0 6.4 0.00 0.00 0.00 56 1007.8
20260508203030 6 289 0.0 0.0 0.00 0.00 0.00 55 1007.6
20260508201531 6 208 0.0 22.5 0.00 0.00 0.00 53 1007.5
20260508200029 6 271 0.0 17.7 0.00 0.00 0.00 54 1007.5
20260508194535 6 317 0.0 4.8 0.00 0.00 0.00 57 1007.6
20260508193127 6 291 0.0 12.9 0.00 0.00 0.00 57 1007.5
20260508191532 6 288 0.0 14.5 0.00 0.00 0.00 59 1007.5
20260508190024 5 286 0.0 8.0 0.00 0.00 0.00 59 1007.5
20260508184525 5 303 0.0 8.0 0.00 0.00 0.00 61 1007.4
20260508183030 5 291 0.0 11.3 0.00 0.00 0.00 60 1007.5
20260508181523 5 294 0.0 1.6 0.00 0.00 0.00 58 1007.5
20260508180026 6 287 0.0 6.4 0.00 0.00 0.00 59 1007.3
20260508174521 5 298 0.0 12.9 0.00 0.00 0.00 58 1007.2
20260508173021 5 286 0.0 0.0 0.00 0.00 0.00 61 1007.2
20260508171522 5 305 0.0 14.5 0.00 0.00 0.00 59 1007.3
20260508170020 5 258 0.0 1.6 0.00 0.00 0.00 63 1007.4
20260508164518 5 331 0.0 3.2 0.00 0.00 0.00 62 1007.2
20260508163028 5 283 0.0 1.6 0.00 0.00 0.00 65 1007.1
20260508161518 5 324 0.0 3.2 0.00 0.00 0.00 65 1007.0
20260508160021 6 287 0.0 6.4 0.00 0.00 0.00 68 1007.2
20260508154517 5 281 0.0 3.2 0.00 0.00 0.00 70 1007.2
20260508153014 5 290 0.0 0.0 0.00 0.00 0.00 70 1007.2
20260508151513 4 317 0.0 1.6 0.00 0.00 0.00 74 1007.1
20260508150033 3 293 0.0 0.0 0.00 0.00 0.00 77 1007.3
20260508144510 4 269 0.0 1.6 0.00 0.00 0.00 72 1007.1
20260508143011 5 294 0.0 0.0 0.00 0.00 0.00 75 1007.1
20260508141508 4 292 0.0 4.8 0.00 0.00 0.00 74 1007.1
20260508140007 4 290 0.0 9.7 0.00 0.00 0.00 73 1007.1
20260508134502 3 291 0.0 1.6 0.00 0.00 0.00 77 1007.2
20260508133008 3 297 0.0 12.9 0.00 0.00 0.00 77 1007.1
20260508131502 3 296 0.0 1.6 0.00 0.00 0.00 77 1007.0
20260508130001 3 299 0.0 4.8 0.00 0.00 0.00 77 1007.0
20260508124600 3 300 0.0 3.2 0.00 0.00 0.00 77 1007.0
20260508123056 3 300 0.0 3.2 0.00 0.00 0.00 76 1006.9
20260508121555 3 304 0.0 0.0 0.00 0.00 0.00 77 1006.8
20260508120052 2 228 0.0 0.0 0.00 0.00 0.00 79 1006.8
20260508114550 2 296 0.0 0.0 0.00 0.00 0.00 79 1006.7